Aeroporto :
LOGIN :

Iscrizione | Disclaimer

   EN    FR    IT 

 










Sommario :    VFR   VFR Marginale   IFR   IFR Intensivo   IFR Molto Intensivo
Visibilità : 
Base nubi : 
>= 8 km
>= 3000ft
5 / 8 km
1000 / 3000 ft
1500m / 5 km
500 / 1000 ft
800 / 1500m
200 / 500 ft
< 800m
< 200 ft
Simboli :   Temporali  Nebbia  Neve Forte  Precipitazioni Forti  Vento > 20 kt
SIGMETs :   Varie  Temporali  Ghiacco  Turbolenza  Onda orograficha  Ceneri Vulcaniche






- Altitudine del aeroporto : 1325 ft
- Codice IATA : EBU


LFMH - St-Etienne Boutheon

ULTIMO METAR :
  • 090500Z AUTO 18006KT CAVOK 06/M02 Q1023

METARs OBSOLETI :
  • 090430Z AUTO 20003KT CAVOK 08/M02 Q1023
  • 090400Z AUTO 19006KT CAVOK 09/M02 Q1023
  • 090330Z AUTO 17006KT CAVOK 09/M02 Q1023
  • 090300Z AUTO 17007KT CAVOK 09/M02 Q1023
  • 090230Z AUTO 17008KT CAVOK 08/M02 Q1023

Previsioni scadute.
ATIS : +33 4 77 36 17 51



MetMap, La meteo Aeronautica in un colpo d'occhio ! - Copyright ORBIFLY Dicembre 2007 - Disclaimer

ORBIFLY MET'MAP TEAM :

Programmazione e sviluppo : Alexandra Zaïnal
Concezione : Baudouin d'Aumeries
Aiuto per la programmazione : Marc-Olivier Méhu
Supporto tecnico e logistico : Manuel Goepfert
Aiuto per la traduzione : Arnaldo La Scala

Contatto : metmap@orbifly.com




FONTI E CREDITI :

   NOAA